Theta_e
318 318 321 332 334 335 333 332 331 328 326 322 320 317 315 315 316 315 313 313 311 308 307 307 304 304 304 303 301 302 300 301 297 299 303 301 300 299 301 303 304 304 305
319 319 320 328 332 328 330 332 334 331 326 321 318 316 318 318 316 313 312 309 306 304 303 303 302 303 299 301 300 299 299 300 298 296 298 299 298 299 301 301 302 304 303
318 318 319 325 329 327 328 327 327 322 319 318 317 318 317 316 313 312 308 306 304 303 301 300 300 299 298 299 300 299 299 300 299 297 295 297 298 300 300 301 301 302 302
319 317 321 324 326 327 328 326 322 319 318 317 318 318 316 313 311 307 304 303 302 301 301 300 299 298 296 297 300 299 298 298 297 296 295 295 298 299 300 298 299 301 299
318 320 322 322 324 323 321 321 320 319 317 316 315 315 313 311 310 306 304 302 300 298 298 299 301 305 308 303 298 297 298 296 297 295 292 296 296 296 296 299 298 297 297
316 320 321 320 320 319 317 313 311 310 308 310 308 308 307 309 304 306 306 302 301 299 297 296 298 299 299 305 306 305 302 295 293 292 291 294 291 296 297 296 296 292 292
317 319 321 319 318 314 309 308 307 305 304 303 303 303 301 302 300 301 303 300 298 296 295 293 296 298 297 300 304 304 305 303 300 293 290 290 290 294 295 299 294 291 293
317 318 319 314 307 306 305 303 304 303 301 301 300 300 299 300 298 298 299 297 296 295 295 294 293 294 296 299 300 300 300 297 298 299 295 293 294 296 294 296 296 294 293
316 312 309 307 305 304 302 301 301 300 300 299 298 297 296 296 297 296 295 295 294 292 293 295 295 294 298 298 298 296 296 299 302 302 300 299 297 298 299 297 299 296 291
315 310 308 306 303 301 302 301 300 299 298 297 296 296 297 295 296 297 296 295 293 294 295 294 297 296 295 296 295 295 295 298 298 298 298 298 297 298 302 301 298 295 292
309 306 305 304 302 300 299 298 297 296 296 295 295 295 295 295 296 297 297 295 293 295 295 294 296 295 295 294 295 294 295 298 298 297 297 297 295 297 298 301 304 300 294
306 304 303 302 300 298 296 295 295 295 294 294 294 293 293 293 296 295 295 295 297 295 294 292 294 294 294 294 295 294 295 298 298 297 297 294 296 298 299 300 303 305 299
305 303 302 300 298 296 294 293 293 294 293 293 292 290 290 291 294 295 295 295 297 298 298 296 295 294 295 296 295 295 296 296 296 293 291 292 296 299 300 301 302 303 300
302 301 300 297 296 296 295 295 293 293 292 291 291 291 291 291 292 292 293 294 300 300 299 297 296 296 296 297 296 296 296 295 294 294 291 295 297 297 299 299 299 297 298
301 299 298 297 295 293 293 294 294 294 293 292 293 292 289 288 289 292 293 297 298 296 296 296 295 294 294 294 294 294 294 294 293 293 294 293 294 298 299 299 298 295 295
297 296 295 293 293 293 291 290 291 292 292 291 291 290 288 290 291 292 294 294 294 294 295 294 293 293 290 292 292 293 295 295 294 294 295 295 296 297 297 298 298 296 295
296 294 292 293 292 291 289 288 287 289 291 290 290 290 290 290 292 294 294 293 293 294 293 291 290 290 291 291 293 295 293 294 294 297 295 295 297 298 298 298 299 298 297
294 294 293 293 292 290 289 289 289 289 288 287 288 289 289 290 291 294 295 296 295 294 292 291 293 296 297 297 297 297 296 296 297 295 294 297 297 296 296 296 296 297 296
292 292 292 291 290 289 289 289 289 288 287 285 286 289 290 291 293 293 294 295 294 293 292 293 293 292 294 296 294 295 293 295 295 296 296 297 297 297 296 296 295 293 294
292 291 291 291 289 289 290 289 289 288 289 290 291 291 292 293 292 292 292 292 293 292 291 290 290 291 291 292 293 293 293 293 295 297 297 298 298 298 297 296 295 295 297
293 293 291 289 289 290 290 290 291 291 290 291 290 290 287 292 290 290 291 290 290 289 289 288 288 288 289 289 290 290 290 290 291 295 297 298 298 298 298 297 297 299 299
293 292 290 289 290 291 291 290 290 290 291 291 290 290 288 292 291 290 290 289 289 289 288 287 287 288 287 287 287 286 286 286 289 292 296 298 298 298 298 297 298 298 299
292 291 290 291 291 291 291 291 291 291 291 292 292 292 292 291 291 290 289 289 288 287 287 288 288 287 286 286 287 285 284 284 286 291 294 296 297 296 296 296 298 297 296
293 293 292 292 291 291 291 291 291 290 291 292 292 291 290 291 291 290 289 288 287 286 286 287 287 286 286 286 286 285 284 284 288 291 293 293 296 295 295 295 297 298 296
293 292 292 291 291 291 291 291 291 291 292 292 292 291 291 291 290 290 288 287 287 287 286 286 286 287 286 285 285 285 285 285 287 287 291 292 293 295 295 294 296 296 295
293 293 292 292 292 292 291 291 291 291 291 292 291 289 290 290 289 288 287 287 286 286 285 284 285 285 286 285 285 285 285 285 287 287 290 290 291 293 294 293 295 294 293
Wind_Speed
5 4 4 6 4 4 1 5 11 15 9 19 14 13 15 11 5 8 10 11 11 9 8 8 9 6 5 5 5 4 5 3 2 4 2 4 7 11 9 10 9 8 6
5 6 6 7 3 4 6 7 10 6 10 18 19 14 12 10 10 10 12 11 11 11 9 10 9 6 7 6 5 6 5 4 2 5 3 6 9 10 8 10 9 7 5
8 8 8 6 7 6 8 8 12 13 10 14 17 16 10 12 14 12 11 12 12 12 11 10 8 7 6 5 6 5 4 5 4 4 4 5 5 7 8 8 8 6 4
12 7 8 10 11 8 7 9 12 15 14 6 13 11 16 12 14 14 11 12 12 13 10 9 7 7 7 6 6 5 6 6 4 4 4 5 6 7 5 6 8 6 2
12 5 9 11 12 12 12 14 13 16 17 19 13 13 9 11 9 13 12 11 15 14 9 9 8 11 14 5 3 6 7 4 4 5 5 5 6 5 7 6 4 7 5
8 2 8 11 13 13 16 16 14 14 18 16 12 18 13 8 10 13 13 12 15 11 9 8 7 11 8 8 12 12 8 5 6 4 4 3 5 6 7 7 4 5 7
12 4 9 12 13 13 16 15 15 15 20 19 17 20 18 10 14 13 16 13 14 12 11 7 6 6 8 6 10 10 12 15 13 5 3 3 4 4 6 10 5 2 5
5 7 11 15 16 15 17 17 17 14 19 17 16 19 17 9 15 13 16 15 12 10 8 7 6 7 9 8 7 6 9 7 7 5 3 4 3 6 3 3 5 4 1
6 10 13 15 17 17 17 16 13 15 16 17 16 17 16 6 9 13 12 12 13 10 6 9 9 9 14 14 8 9 6 4 6 8 9 7 9 11 7 4 7 6 3
13 14 13 14 18 18 16 15 14 14 14 16 16 14 9 5 2 4 8 7 8 6 8 10 17 12 17 15 9 6 7 5 6 7 8 7 7 8 9 3 2 3 3
16 17 15 16 18 17 17 15 15 13 12 18 17 10 7 3 5 8 8 5 5 7 9 8 9 18 16 15 12 7 6 5 8 6 4 4 5 5 5 5 4 1 3
18 18 17 16 15 15 18 16 14 14 17 16 14 8 5 4 13 13 11 9 7 8 8 5 8 14 15 14 10 13 13 8 5 5 5 6 6 7 8 6 5 5 4
20 18 17 17 16 15 18 16 12 11 12 12 10 8 5 3 7 13 11 9 14 13 10 12 11 11 12 11 16 13 9 5 5 5 4 4 4 6 7 5 5 5 5
20 18 16 17 17 15 12 11 10 10 10 9 9 9 6 4 4 3 5 5 14 13 14 10 10 11 12 9 8 8 5 4 4 3 3 4 5 5 5 4 3 3 2
19 16 16 15 15 14 11 8 10 6 8 10 7 6 5 5 0 6 8 9 9 9 10 9 8 7 7 7 5 5 4 4 4 3 4 5 4 5 5 4 4 4 5
18 13 14 13 11 11 13 10 11 14 21 18 16 8 4 4 10 16 19 19 17 13 9 8 6 5 4 4 5 5 5 6 4 4 3 3 4 5 6 4 4 5 5
20 17 13 14 13 12 11 10 12 15 23 18 14 11 10 11 16 18 19 18 15 9 7 5 4 4 3 3 4 5 5 5 4 5 5 5 5 5 7 7 5 4 6
19 24 14 13 13 9 8 11 13 13 13 7 8 6 9 12 15 16 15 10 7 6 4 3 2 4 6 8 8 8 8 8 8 5 5 6 6 4 5 5 5 4 5
17 14 14 13 8 12 11 13 12 10 9 5 3 7 7 13 16 16 11 6 6 5 5 8 7 6 7 6 5 7 5 7 7 6 6 7 7 5 6 7 5 6 5
16 26 19 11 12 13 12 12 11 9 8 6 7 8 7 12 10 7 9 8 8 8 9 9 8 7 7 7 7 7 7 9 9 8 7 7 7 6 8 7 6 4 4
16 13 12 13 13 13 12 11 9 9 6 7 7 7 9 10 9 9 9 9 8 9 9 8 7 6 5 6 6 7 7 7 8 8 8 9 8 7 6 8 9 9 8
13 10 12 14 13 12 11 7 7 9 10 10 10 8 12 10 10 11 10 10 10 9 8 6 5 5 5 5 6 6 6 7 8 7 8 8 8 8 8 7 9 9 7
13 15 14 13 9 12 11 10 11 11 10 10 11 10 10 8 10 10 10 9 8 7 5 5 6 7 6 6 5 5 5 5 5 5 7 7 8 8 8 9 8 10 9
16 14 13 13 12 11 11 12 10 10 10 10 10 9 7 8 10 9 8 7 5 2 4 6 7 8 8 7 6 5 5 5 5 7 8 8 8 9 9 9 9 10 8
15 14 14 14 13 10 10 11 11 11 11 11 10 9 9 11 10 9 7 5 4 7 8 6 5 9 12 13 12 10 10 11 9 8 8 10 10 11 10 10 9 10 12
13 15 12 10 9 10 10 11 11 11 11 11 9 7 7 9 8 7 5 6 8 8 6 5 8 11 12 11 12 13 11 10 8 10 7 8 9 9 10 11 13 10 11
Wind_Direction
304 306 328 263 260 260 346 119 131 123 119 108 108 120 122 122 118 105 109 99 92 92 77 80 76 59 53 52 54 49 37 40 99 25 73 0 24 13 0 1 357 355 353
325 332 331 288 237 25 105 105 156 168 142 141 123 128 141 138 128 130 108 109 108 91 78 71 59 54 47 52 62 49 37 16 76 72 7 20 34 2 352 352 349 356 4
329 343 331 335 75 73 135 126 109 101 93 124 121 130 139 133 116 105 116 104 100 98 93 84 72 55 48 47 52 44 40 31 52 76 18 27 13 0 351 350 348 353 3
316 330 26 56 68 68 77 86 92 100 102 89 118 118 125 122 107 111 112 108 104 87 77 71 60 66 57 47 58 50 46 53 43 56 39 25 10 352 353 354 356 359 326
329 30 103 93 93 94 86 88 90 99 94 85 83 66 49 95 124 120 113 123 99 93 80 74 53 53 51 81 99 56 53 29 37 61 45 21 16 351 351 333 355 3 11
337 264 113 101 109 101 104 96 94 95 93 96 75 81 56 38 51 89 108 95 84 91 82 60 52 35 15 53 103 80 71 77 53 63 62 16 358 341 340 334 330 349 20
313 99 128 109 93 93 94 96 96 94 92 92 93 92 79 74 47 52 73 82 85 76 69 59 49 33 25 48 89 78 73 72 74 90 90 24 2 317 309 345 334 2 32
344 88 99 102 99 97 96 99 100 99 94 97 90 88 79 59 67 69 78 77 80 75 65 65 57 38 27 61 101 86 84 74 68 71 84 33 328 296 288 286 303 318 350
142 106 109 111 110 106 101 102 104 104 101 88 85 82 88 78 22 71 84 89 78 71 74 64 57 50 41 43 66 74 71 91 83 51 51 26 344 318 329 345 6 4 344
124 114 109 110 108 107 108 107 103 97 103 101 95 81 91 90 29 138 102 98 98 96 71 59 55 59 53 46 57 70 65 56 34 26 15 5 331 315 325 333 318 355 347
111 110 112 109 109 106 106 104 101 106 101 95 90 70 65 74 159 168 133 113 108 92 79 71 61 58 53 51 56 57 64 47 31 25 351 340 316 321 318 324 340 51 19
115 113 115 115 109 109 106 96 101 110 104 93 91 84 57 48 101 108 107 94 86 95 101 84 72 63 57 50 49 42 38 32 22 14 6 353 347 346 329 330 350 55 54
116 116 113 110 107 109 108 108 105 102 103 101 108 106 94 76 86 81 80 72 75 84 83 79 74 61 54 50 41 33 28 26 21 23 353 328 322 306 312 347 37 60 42
116 114 117 111 107 105 102 103 101 108 114 120 117 115 105 70 66 64 63 59 82 80 75 72 67 64 60 56 42 32 23 17 18 359 328 303 321 342 342 344 1 14 74
114 116 115 109 108 101 85 95 128 157 118 120 111 106 104 100 221 91 96 92 89 90 88 74 61 48 38 26 15 4 355 348 5 343 358 344 339 345 349 348 14 14 46
113 117 116 111 106 105 102 86 45 100 95 91 86 94 54 108 95 86 90 83 77 73 79 75 63 44 28 359 357 348 354 350 352 334 349 345 331 344 345 352 36 38 34
120 119 112 110 106 108 108 119 109 76 72 72 73 74 76 93 92 101 96 93 89 80 80 60 57 33 353 11 20 23 352 346 338 359 1 357 351 354 16 18 45 58 40
115 114 110 108 108 115 124 117 105 107 110 90 33 70 64 76 87 106 103 97 81 50 73 81 65 54 48 41 34 31 13 1 9 3 5 16 5 359 20 27 25 31 31
111 108 109 110 127 118 113 103 107 104 102 90 60 41 47 78 71 71 77 83 76 57 56 60 54 41 27 20 29 30 10 356 359 1 7 16 14 14 20 27 25 37 44
103 112 112 121 116 113 109 112 111 109 106 113 101 87 80 77 73 66 58 58 64 65 59 56 43 39 29 25 20 15 13 10 1 6 6 9 13 20 26 23 22 33 42
113 119 125 115 115 112 115 115 111 110 102 93 90 85 92 90 77 61 62 57 56 57 59 54 39 27 26 27 23 16 17 6 4 1 8 17 15 18 15 25 36 45 69
122 129 120 118 116 117 116 109 108 111 105 106 92 84 72 72 76 74 66 60 55 53 47 50 40 28 21 27 19 18 14 8 2 356 8 17 22 23 25 27 38 43 49
122 123 118 117 116 113 112 113 112 109 103 97 97 92 83 87 85 83 79 74 60 51 45 57 47 30 10 12 14 22 26 357 324 329 21 17 28 24 23 34 49 52 46
125 121 117 114 114 112 114 112 107 104 109 103 95 88 96 96 82 80 78 67 66 66 59 62 57 46 33 22 14 13 6 354 360 20 27 26 28 27 30 37 45 52 53
116 117 114 117 119 124 119 118 112 107 108 107 102 93 89 89 95 90 79 88 94 67 52 32 40 41 37 30 25 23 18 15 23 26 34 33 29 32 36 42 53 47 47
114 119 120 122 118 111 111 114 119 119 109 98 91 88 94 98 91 86 98 94 80 70 59 39 42 36 36 30 21 20 22 25 26 28 34 43 43 36 39 43 58 50 51